Regional Weather Roundup
Issued by NWS

Home | Current Version | Previous Version | Text Only | Print | Product List | Glossary On
Versions: 1 2 3 4 5 6 7 8 9 10 11 12 13 14 15 16 17 18 19 20 21 22 23 24 25 26 27 28 29 30 31 32 33 34 35 36 37 38 39 40 41 42 43 44 45 46 47 48 49 50
000
ASUS46 KSTO 170415
RWRCA

NORTHERN AND CENTRAL CA REGIONAL WEATHER ROUNDUP
NATIONAL WEATHER SERVICE SACRAMENTO CA
900 PM PDT MON OCT 16 2017

NOTE: FAIR INDICATES FEW OR NO CLOUDS BELOW 12,000 FEET WITH NO
SIGNIFICANT WEATHER AND/OR OBSTRUCTIONS TO VISIBILITY.

CAZ001-003-170500-
NORTHWEST AREA

CITY           SKY/WX    TMP DP  RH WIND       PRES   REMARKS
CRESCENT CITY  PTCLDY    48  47  96 S3        30.09S
UKIAH          CLEAR     58  36  43 CALM      30.08R
$$

CAZ006-505>513-170500-
BAY AREA

CITY           SKY/WX    TMP DP  RH WIND       PRES   REMARKS
SANTA ROSA     CLEAR     63  40  42 CALM      30.04R
SAN RAFAEL     N/A       69  MM  MM MISG
NAPA           PTCLDY    59  37  44 CALM      30.05R
CONCORD        CLEAR     64  39  39 CALM      30.06R
OAKLAND CITY   N/A      MM  MM  MM MISG
OAKLAND        PTCLDY    64  42  44 CALM      30.05R
SAN FRAN CITY  N/A       74  MM  20 MISG
SAN FRAN ARPT  PTCLDY    72  39  30 CALM      30.04R
LIVERMORE      CLEAR     62  31  31 CALM      30.06R
HAYWARD        CLEAR     69  30  23 E3        30.04R
REDWOOD CITY   N/A       63  MM  46 MISG
MOFFETT ARPT   CLEAR     68  42  38 CALM      30.05R
SAN JOSE ARPT  PTCLDY    69  42  37 CALM      30.05R
$$
CAZ034-037-514>518-170500-
CENTRAL COAST

CITY           SKY/WX    TMP DP  RH WIND       PRES   REMARKS
SALINAS        CLEAR     65  42  43 NW3       30.05S
MONTEREY       CLEAR     64  37  36 SE3       30.06S
SAN LUIS OBISP CLEAR     66  34  30 CALM      30.05R
SANTA MARIA    CLEAR     65  36  34 S7        30.06R
$$
CAZ015-016-170500-
NORTHERN SACRAMENTO VALLEY

CITY           SKY/WX    TMP DP  RH WIND       PRES   REMARKS
REDDING        PTCLDY    62  29  28 CALM      30.04R
RED BLUFF      PTCLDY    59  33  37 NW3       30.04R
OROVILLE       CLEAR     63  37  38 E5        30.06R
$$
CAZ016>018-170500-
SOUTHERN SACRAMENTO VALLEY

CITY           SKY/WX    TMP DP  RH WIND       PRES   REMARKS
AUBURN         CLEAR     63 N/A N/A E7        30.10S
BEALE AFB      CLEAR     60  32  34 CALM      30.02S
LINCOLN        FAIR      52  36  54 E6        30.04S
MARYSVILLE     PTCLDY    59  39  47 E5        30.04S
SAC INTL ARPT  PTCLDY    60  41  49 SW5       30.03S
MATHER AIRPORT MOCLDY    59  36  41 E3        30.04S
DOWNTOWN SAC   N/A       62  MM  MM MISG
SAC EXEC ARPT  CLEAR     59  44  57 CALM      30.04S
VACAVILLE      CLEAR     60  34  37 SW3       30.06S
TRAVIS AFB     PTCLDY    55  31  40 W6        30.04R
$$
CAZ019>021-170500-
SAN JOAQUIN VALLEY

CITY           SKY/WX    TMP DP  RH WIND       PRES   REMARKS
STOCKTON       CLEAR     63  42  46 SW3       30.04S
MODESTO        CLEAR     62  47  57 CALM      30.04S
MERCED         CLEAR     61  42  49 CALM      30.05R
LEMOORE        PTCLDY    58  39  49 CALM      30.07R
FRESNO         CLEAR     66  43  43 CALM      30.07R
HANFORD        PTCLDY    56  47  71 CALM      30.08R
PORTERVILLE    CLEAR     61  44  53 SE6       30.09R
BAKERSFIELD    CLEAR     68  39  34 CALM      30.08R
$$
CAZ011-012-071-170500-
NORTHERN MOUNTAINS

CITY           SKY/WX    TMP DP  RH WIND       PRES   REMARKS
YREKA          CLEAR     51  13  21 CALM      30.17S
MOUNT SHASTA   CLEAR     46  31  55 CALM      30.19S
ALTURAS        CLEAR     48  17  29 CALM      30.24R
$$
CAZ011-012-071-170500-
SIERRA NEVADA MTNS

CITY           SKY/WX    TMP DP  RH WIND       PRES   REMARKS
BLUE CANYON    CLEAR     63  19  18 CALM      30.30S
TRUCKEE        CLEAR     41  21  45 CALM      30.35S
TAHOE VLY ARPT CLEAR     41  28  60 CALM      30.36S
MAMMOTH LAKES  FAIR      42   9  25 CALM      30.43R
$$



USA.gov is the U.S. government's official web portal to all federal, state and local government web resources and services.